World > North America > United States > Texas > Ojuelas  

Ojuelas, TX Hourly Weather Updates

Feedback E-mail the Weather

Quick Clicks

Ojuelas, TX Weather Maps

°F °C°F °C
Ojuelas Weather Map
UTC Time: 4/17/2024, 00:32
Your Time:

Ojuelas, TX Regional Weather

Expires:202404170100;;868528
ASUS44 KSJT 170010
RWRSJT
WEST CENTRAL TEXAS REGIONAL WEATHER ROUNDUP
NATIONAL WEATHER SERVICE SAN ANGELO TX
700 PM CDT TUE APR 16 2024

NOTE: "FAIR" INDICATES FEW OR NO CLOUDS BELOW 12,000 FEET WITH NO
SIGNIFICANT WEATHER AND/OR OBSTRUCTIONS TO VISIBILITY.


TXZ229-232-234-239-242-243-245-247-249-250-
253-255-257-343-347-443-170100-
TEXAS COASTAL BEND, RIO GRANDE PLAINS DEEP SOUTH TEXAS
  
CITY           SKY/WX    TMP DP  RH WIND       PRES   REMARKS
VICTORIA       CLOUDY    77  71  82 SE14      29.84R TC  25           
BEEVILLE       CLOUDY    79  68  68 SE12      29.81R TC  26           
ROCKPORT       CLOUDY    77  73  87 SE15      29.81S FOG     TC  25   
PORT ARANSAS   PTSUNNY   76  72  87 E12       29.83R TC  25           
PORT LAVACA    CLOUDY    78  73  86 SE13G21   29.84S TC  26           
CORPUS CHRISTI CLOUDY    80  72  76 SE14      29.80R TC  27           
KINGSVILLE NAS CLOUDY    81  73  76 SE13      29.79R TC  27           
COTULLA        CLOUDY    83  71  67 E8        29.79S TC  28           
LAREDO         CLOUDY    86  69  56 NE7       29.76S TC  30           
BROWNSVILLE    CLOUDY    82  75  79 E14       29.77S TC  28           
PORT ISABEL    CLOUDY    77  74  90 SE14      29.79R TC  25           
HEBBRONVILLE   CLOUDY    85  72  63 SE12      29.79R TC  30           
MCALLEN        CLOUDY    86  72  62 SE15      29.76R TC  30           
WESLACO        NOT AVBL                                          

SKY/WX - Weather  TMP - Temperature  DP - Dew Point  RH - Humidity
WIND - Wind Direction/Speed PRES - Barometric Pressure VSB - Visibility
WCI - Wind Chill Index E13G22 Wind - East Wind 13 mph/Gusts of 22 mph

Trending Headlines

Trending Entertainment Headlines

Ojuelas Radar Loop

Use the map search tool if you want to place a location marker on the radar map...

Ojuelas Quick Facts

National Two Day Weather Forecast


E-mail the Ojuelas Weather Forecast

Voice your opinion or tell us about page issues...